TimeEDT,TemperatureF,Dew PointF,Humidity,Sea Level PressureIn,VisibilityMPH,Wind Direction,Wind SpeedMPH,Gust SpeedMPH,PrecipitationIn,Events,Conditions,WindDirDegrees,DateUTC
12:15 AM,39.6,37.4,92,29.88,10.0,ENE,10.4,19.6,N/A,,Overcast,70,2013-04-11 04:15:00
12:35 AM,39.6,37.4,92,29.90,10.0,ENE,6.9,16.1,N/A,,Light Drizzle,70,2013-04-11 04:35:00
12:55 AM,39.6,37.4,92,29.91,5.0,NE,10.4,-,N/A,Rain,Heavy Rain,50,2013-04-11 04:55:00
1:14 AM,38.8,37.4,95,29.91,5.0,East,11.5,17.3,N/A,Rain,Rain,80,2013-04-11 05:14:00
1:34 AM,38.5,37.0,95,29.89,7.0,NE,11.5,-,N/A,Rain,Rain,50,2013-04-11 05:34:00
1:55 AM,38.3,36.7,94,29.87,4.0,ENE,11.5,19.6,N/A,Rain,Rain,60,2013-04-11 05:55:00
2:15 AM,37.9,36.5,95,29.89,4.0,East,8.1,18.4,N/A,Rain,Rain,90,2013-04-11 06:15:00
2:35 AM,37.6,36.0,94,29.87,2.5,East,11.5,20.7,N/A,,Overcast,90,2013-04-11 06:35:00
2:55 AM,37.4,36.0,95,29.86,2.5,ENE,15.0,20.7,N/A,,Overcast,70,2013-04-11 06:55:00
3:15 AM,37.0,35.6,95,29.84,5.0,East,16.1,20.7,N/A,Rain,Light Rain,90,2013-04-11 07:15:00
3:35 AM,37.0,35.6,95,29.85,7.0,NE,10.4,17.3,N/A,Rain,Rain,50,2013-04-11 07:35:00
3:55 AM,37.0,35.6,95,29.84,5.0,East,9.2,18.4,N/A,Rain,Light Rain,80,2013-04-11 07:55:00
4:15 AM,37.0,35.6,95,29.85,5.0,East,9.2,-,N/A,Rain,Light Rain,80,2013-04-11 08:15:00
4:35 AM,37.4,36.0,95,29.75,7.0,East,21.9,25.3,N/A,Rain,Rain,90,2013-04-11 08:35:00
4:55 AM,37.4,36.0,95,29.78,10.0,East,16.1,20.7,N/A,Rain,Light Rain,100,2013-04-11 08:55:00
5:15 AM,37.4,36.0,95,29.76,10.0,East,11.5,20.7,N/A,,Overcast,80,2013-04-11 09:15:00
5:35 AM,37.9,36.5,95,29.82,10.0,East,11.5,18.4,N/A,,Overcast,90,2013-04-11 09:35:00
5:55 AM,37.9,36.5,95,29.77,10.0,East,16.1,20.7,N/A,,Overcast,90,2013-04-11 09:55:00
6:15 AM,38.3,36.5,93,29.77,10.0,East,15.0,25.3,N/A,,Overcast,90,2013-04-11 10:15:00
6:35 AM,38.7,36.9,93,29.77,10.0,East,16.1,20.7,N/A,,Overcast,100,2013-04-11 10:35:00
6:55 AM,39.2,37.4,93,29.79,10.0,East,16.1,23.0,N/A,,Overcast,100,2013-04-11 10:55:00
7:15 AM,39.4,37.2,92,29.77,10.0,East,16.1,21.9,N/A,,Overcast,90,2013-04-11 11:15:00
7:35 AM,39.6,37.4,92,29.77,10.0,East,16.1,20.7,N/A,,Overcast,90,2013-04-11 11:35:00
7:55 AM,39.9,37.4,91,29.78,10.0,East,15.0,21.9,N/A,,Overcast,90,2013-04-11 11:55:00
8:15 AM,40.1,37.4,90,29.79,10.0,East,16.1,21.9,N/A,,Overcast,90,2013-04-11 12:15:00
8:35 AM,40.1,37.2,89,29.79,10.0,East,16.1,26.5,N/A,,Overcast,90,2013-04-11 12:35:00
8:55 AM,39.7,37.4,91,29.78,4.0,East,15.0,26.5,N/A,Rain,Rain,90,2013-04-11 12:55:00
9:15 AM,39.6,37.6,93,29.78,2.0,East,18.4,24.2,N/A,,Unknown,90,2013-04-11 13:15:00
9:35 AM,39.4,37.8,94,29.75,2.0,East,17.3,27.6,N/A,Rain,Light Rain,90,2013-04-11 13:35:00
9:55 AM,39.6,37.8,93,29.75,10.0,East,20.7,27.6,N/A,,Overcast,90,2013-04-11 13:55:00
10:15 AM,39.7,37.6,92,29.75,10.0,East,17.3,33.4,N/A,,Overcast,100,2013-04-11 14:15:00
10:35 AM,39.7,37.4,91,29.75,10.0,East,23.0,29.9,N/A,,Overcast,100,2013-04-11 14:35:00
10:55 AM,39.6,37.6,93,29.73,3.0,East,20.7,31.1,N/A,Rain,Light Rain,100,2013-04-11 14:55:00
11:15 AM,39.6,37.6,93,29.73,5.0,East,20.7,29.9,N/A,Rain,Light Rain,100,2013-04-11 15:15:00
11:35 AM,39.9,37.8,92,29.73,10.0,East,18.4,32.2,N/A,,Overcast,100,2013-04-11 15:35:00
11:55 AM,40.1,37.9,92,29.73,4.0,East,20.7,29.9,N/A,Rain,Light Rain,100,2013-04-11 15:55:00
12:15 PM,40.1,38.3,93,29.72,4.0,East,20.7,33.4,N/A,Rain,Light Rain,100,2013-04-11 16:15:00
12:35 PM,40.1,38.1,93,29.72,3.0,East,21.9,32.2,N/A,Rain,Light Rain,90,2013-04-11 16:35:00
1:15 PM,40.1,38.3,93,29.72,1.8,East,23.0,29.9,N/A,Rain,Light Rain,100,2013-04-11 17:15:00
1:35 PM,40.1,38.5,94,29.70,1.2,East,20.7,33.4,N/A,,Unknown,100,2013-04-11 17:35:00
1:55 PM,40.3,38.7,94,29.69,1.2,East,19.6,27.6,N/A,Rain,Light Rain,100,2013-04-11 17:55:00
2:15 PM,40.5,39.0,95,29.67,3.0,East,20.7,31.1,N/A,Rain,Light Rain,100,2013-04-11 18:15:00
2:35 PM,40.6,39.2,95,29.67,3.0,East,19.6,26.5,N/A,,Overcast,100,2013-04-11 18:35:00
2:55 PM,40.6,39.2,95,29.67,2.0,ESE,18.4,27.6,N/A,Rain,Light Rain,110,2013-04-11 18:55:00
3:15 PM,41.0,39.2,93,29.67,1.8,East,17.3,27.6,N/A,Rain,Rain,100,2013-04-11 19:15:00
3:35 PM,40.6,39.2,95,29.67,2.0,East,18.4,26.5,N/A,Rain,Light Rain,100,2013-04-11 19:35:00
3:55 PM,40.6,38.8,93,29.67,4.0,East,19.6,27.6,N/A,,Overcast,100,2013-04-11 19:55:00
4:14 PM,40.5,38.8,94,29.65,4.0,East,20.7,29.9,N/A,Rain,Light Rain,100,2013-04-11 20:14:00
4:34 PM,40.3,38.5,93,29.64,10.0,ESE,20.7,27.6,N/A,,Overcast,110,2013-04-11 20:34:00
4:55 PM,40.5,38.3,92,29.64,10.0,East,17.3,25.3,N/A,,Overcast,90,2013-04-11 20:55:00
5:15 PM,40.1,38.3,93,29.64,2.5,ESE,16.1,23.0,N/A,Rain,Heavy Rain,110,2013-04-11 21:15:00
5:35 PM,39.9,38.3,94,29.64,1.8,East,13.8,19.6,N/A,Rain,Light Rain,100,2013-04-11 21:35:00
5:55 PM,39.9,38.3,94,29.64,4.0,ESE,17.3,23.0,N/A,,Overcast,110,2013-04-11 21:55:00
6:15 PM,39.6,37.9,94,29.64,10.0,East,13.8,23.0,N/A,Rain,Rain,100,2013-04-11 22:15:00
6:35 PM,39.6,37.9,94,29.64,7.0,East,15.0,21.9,N/A,Rain,Light Rain,100,2013-04-11 22:35:00
6:55 PM,39.4,37.9,95,29.65,7.0,East,15.0,18.4,N/A,Rain,Light Rain,100,2013-04-11 22:55:00
7:15 PM,39.4,37.9,95,29.64,5.0,East,12.7,18.4,N/A,Rain,Light Rain,100,2013-04-11 23:15:00
7:35 PM,39.4,37.9,95,29.63,7.0,East,12.7,18.4,N/A,Rain,Rain,100,2013-04-11 23:35:00
7:55 PM,39.4,37.9,95,29.64,4.0,East,10.4,17.3,N/A,Rain,Heavy Rain,100,2013-04-11 23:55:00
8:15 PM,39.2,37.8,95,29.63,3.0,East,11.5,-,N/A,Rain,Rain,90,2013-04-12 00:15:00
8:34 PM,39.2,37.8,95,29.65,7.0,East,9.2,17.3,N/A,Rain,Rain,100,2013-04-12 00:34:00
8:55 PM,39.0,37.8,95,29.64,5.0,East,10.4,-,N/A,Rain,Rain,90,2013-04-12 00:55:00
9:14 PM,38.7,37.4,95,29.63,5.0,East,12.7,20.7,N/A,Rain,Light Rain,90,2013-04-12 01:14:00
9:34 PM,38.5,37.0,95,29.61,7.0,East,12.7,16.1,N/A,Rain,Light Rain,90,2013-04-12 01:34:00
9:55 PM,38.5,37.0,95,29.62,7.0,East,10.4,18.4,N/A,,Drizzle,90,2013-04-12 01:55:00
10:14 PM,38.5,36.9,94,29.62,5.0,East,10.4,17.3,N/A,Rain,Rain,100,2013-04-12 02:14:00
10:34 PM,38.3,36.9,95,29.61,4.0,East,10.4,-,N/A,Rain,Light Rain,90,2013-04-12 02:34:00
10:55 PM,38.3,36.7,94,29.60,5.0,East,12.7,-,N/A,Rain,Light Rain,90,2013-04-12 02:55:00
11:15 PM,38.3,36.7,94,29.60,5.0,East,12.7,19.6,N/A,,Drizzle,100,2013-04-12 03:15:00
11:35 PM,38.3,36.7,94,29.59,7.0,ESE,11.5,17.3,N/A,Rain,Light Rain,110,2013-04-12 03:35:00
11:55 PM,38.3,36.7,94,29.60,7.0,ESE,10.4,-,N/A,Rain,Light Rain,110,2013-04-12 03:55:00